Regional Weather Roundup
Issued by NWS Lake Charles, LA

Home | Current Version | Previous Version | Text Only | Print | Product List | Glossary On
Versions: 1 2 3 4 5 6 7 8 9 10 11 12 13 14 15 16 17 18 19 20 21 22 23 24 25 26
000
ASUS44 KLCH 190010
RWRLCH
REGIONAL WEATHER ROUNDUP
NATIONAL WEATHER SERVICE LAKE CHARLES LA
600 PM CST SUN FEB 18 2018

Note: "fair" indicates few or no clouds below 12,000 feet with no
significant weather and/or obstructions to visibility.


ACROSS SOUTHEAST TEXAS

CITY           SKY/WX    TMP DP  RH WIND       PRES   REMARKS
BEAUMONT       FAIR      70  66  87 S13       30.06S
BEAUMONT CITY  FAIR      72  66  82 S7        30.07S
ORANGE         MOCLDY    71  70  96 S9        30.09S
JASPER         FAIR      73  65  75 SE5       30.07S
$$

ACROSS CENTRAL LOUISIANA

CITY           SKY/WX    TMP DP  RH WIND       PRES   REMARKS
LEESVILLE      FAIR      67  64  91 E7        30.06F
FULLERTON      LGT RAIN  70  64  81 CALM      30.06S
ALEXANDRIA INT FAIR      65  61  87 E5        30.08S
ESLER FIELD    FAIR      64  62  93 CALM      30.10S
DERIDDER       FAIR      71  65  82 SE6       30.09S
OAKDALE        FAIR      71  63  76 CALM      30.09S
OPELOUSAS      MOCLDY    71  64  79 S6        30.10S
$$

ACROSS SOUTHWEST AND SOUTH CENTRAL LOUISIANA

CITY           SKY/WX    TMP DP  RH WIND       PRES   REMARKS
SULPHUR        CLOUDY    70  68  94 S10       30.10R FOG
LAKE CHARLES   MOCLDY    71  68  90 S8        30.09S
CHENNAULT INT  MOCLDY    72  66  83 S8        30.10R
CAMERON PHI    FOG       66  66 100 SE10      30.09F VSB 0
DEQUINCY       FAIR      70  64  81 SE7       30.08S
JENNINGS       FAIR      72  65  78 S8        30.10S
LAFAYETTE      FAIR      73  66  78 S8        30.11S
NEW IBERIA     FAIR      72  63  73 S9        30.13R
ABBEVILLE      CLOUDY    71  69  95 SE5       30.12S
PATTERSON      FAIR      72  65  78 S8        30.13R
SALT POINT       N/A     70  65  84 SE6       30.11S
$$

SELECTED SITES ACROSS THE REGION

CITY           SKY/WX    TMP DP  RH WIND       PRES   REMARKS
HOUSTON BUSH   MOCLDY    74  67  78 SE18      30.01S
HOUSTON HOBBY  MOCLDY    73  68  84 SE13G21   30.02S
GALVESTON      FAIR      69  67  93 SE12      30.05S FOG
COLLEGE STAT   PTCLDY    75  63  66 S14       29.95F
CONROE         MOCLDY    73  67  81 SE10      30.01R
HUNTSVILLE     MOCLDY    75  64  68 SE6       29.98F
LUFKIN         CLOUDY    71  64  78 S9        30.00F
SHREVEPORT     CLOUDY    58  58 100 SE8       30.02F FOG
MONROE         FAIR      62  58  86 VRB3      30.09F
NATCHEZ MS     FAIR      68  62  81 CALM      30.12S
BATON ROUGE    FAIR      75  59  57 S7        30.11R
N.O. INTL ARPT MOCLDY    75  65  70 S9        30.13S
SLIDELL        FAIR      72  64  76 SE6       30.15R
$$

MARINE REPORTS

STATION/POSITION TIME  SKY/WX   TEMP    WIND        PRES    VSBY
                                AIR SEA DIR/SP/G
                 (UTC)          (F)     (DEG/KT/KT) (MB)    (MI)
BUOY 30 S HIGH I 2250            65 62  140/ 10/ 10 1017.8
WVE H/P(F/S)=  2/ 5

SEA RIM ST PARK  0000            65     140/  7/  9 1018.7S
PORT ARTHUR      2348            67 62  150/  5/  6 1018.7R
SABINE PASS N    2348            65 67  130/ 10/ 12 1020.0R
TEXAS POINT      NOT AVBL
CALCASIEU PASS   2348            65 63  150/  7/ 10 1017.9S
LK CHARLES BEACH 2348            72 64              1018.4R
MARSH ISLAND     NOT AVBL
FRESH WATER LOCK 2348            69 71  120/  7/ 11 1019.6S
AMERADA PASS     2348            71 54  130/  4/  6 1020.2R
$$




USA.gov is the U.S. government's official web portal to all federal, state and local government web resources and services.